"2000/01/01", 6.7, 7.2, 6.0
"2000/01/02", 6.4, 6.8, 6.1
"2000/01/03", 6.7, 7.0, 6.3
"2000/01/04", 6.8, 7.5, 6.4
"2000/01/05", 6.7, 6.9, 6.3
"2000/01/06", 7.0, 7.6, 6.7
"2000/01/07", 7.5, 8.1, 7.2
"2000/01/08", 7.5, 7.6, 7.3
"2000/01/09", 7.3, 7.5, 7.0
"2000/01/10", 7.5, 8.1, 7.2
"2000/01/11", 7.3, 7.7, 6.7
"2000/01/12", 6.5, 6.7, 6.3
"2000/01/13", 6.4, 6.6, 6.0
"2000/01/14", 6.9, 7.3, 6.5
"2000/01/15", 7.0, 7.2, 6.8
"2000/01/16", 7.1, 7.5, 6.7
"2000/01/17", 6.9, 7.2, 6.7
"2000/01/18", 6.8, 7.2, 6.6
"2000/01/19", 6.5, 6.8, 6.4
"2000/01/20", 6.4, 6.9, 6.0
"2000/01/21", 5.7, 6.2, 4.3
"2000/01/22", 5.4, 5.8, 4.8
"2000/01/23", 5.5, 6.0, 5.1
"2000/01/24", 5.6, 6.0, 5.4
"2000/01/25", 5.5, 5.7, 5.2
"2000/01/26", 5.2, 5.6, 4.7
"2000/01/27", 4.9, 5.2, 4.6
"2000/01/28", 4.9, 5.4, 3.8
"2000/01/29", 5.0, 5.8, 4.2
"2000/01/30", 5.1, 5.9, 4.6
"2000/01/31", 5.3, 5.9, 4.9
"2000/02/01", 5.2, 5.6, 4.5
"2000/02/02", 5.4, 5.7, 4.8
"2000/02/03", 5.5, 6.3, 5.2
"2000/02/04", 5.6, 6.0, 5.2
"2000/02/05", 5.7, 6.3, 5.2
"2000/02/06", 5.8, 6.1, 5.6
"2000/02/07", 6.2, 7.0, 5.7
"2000/02/08", 6.4, 7.2, 6.1
"2000/02/09", 5.9, 6.5, 5.2
"2000/02/10", 5.4, 5.8, 4.8
"2000/02/11", 5.5, 6.7, 4.9
"2000/02/12", 5.8, 6.6, 5.0
"2000/02/13", 6.0, 6.9, 5.6
"2000/02/14", 5.7, 5.8, 5.5
"2000/02/15", 5.5, 6.1, 5.2
"2000/02/16", 4.8, 5.4, 4.1
"2000/02/17", 4.6, 5.1, 3.8
"2000/02/18", 4.5, 4.9, 4.2
"2000/02/19", 4.2, 5.0, 3.2
"2000/02/20", 4.6, 4.7, 4.3
"2000/02/21", 4.4, 5.2, 3.9
"2000/02/22", 4.3, 5.1, 3.8
"2000/02/23", 4.0, 4.5, 3.2
"2000/02/24", 4.5, 5.1, 3.9
"2000/02/25", 4.5, 5.4, 3.9
"2000/02/26", 4.1, 4.4, 3.8
"2000/02/27", 4.5, 5.7, 3.5
"2000/02/28", 4.8, 5.7, 4.1
"2000/02/29", 4.6, 5.3, 3.8
"2000/03/01", 4.5, 5.4, 3.8
"2000/03/02", 5.3, 6.3, 4.4
"2000/03/03", 6.2, 7.5, 5.3
"2000/03/04", 6.1, 6.5, 5.7
"2000/03/05", 6.9, 7.9, 6.2
"2000/03/06", 6.5, 6.9, 6.2
"2000/03/07", 7.1, 8.3, 6.3
"2000/03/08", 7.7, 8.7, 7.0
"2000/03/09", 7.5, 8.2, 7.1
"2000/03/10", 6.8, 7.3, 6.0
"2000/03/11", 6.5, 6.9, 6.0
"2000/03/12", 6.8, 7.1, 6.5
"2000/03/13", 7.2, 8.2, 6.6
"2000/03/14", 7.0, 8.1, 5.5
"2000/03/15", 7.5, 8.3, 6.8
"2000/03/16", 7.3, 7.5, 7.2
"2000/03/17", 7.1, 7.9, 6.4
"2000/03/18", 7.5, 8.7, 6.7
"2000/03/19", 7.9, 8.9, 7.3
"2000/03/20", 8.5, 9.2, 7.9
"2000/03/21"," *"," *"," *"
"2000/03/22", 8.7, 9.7, 8.1
"2000/03/23", 8.5, 8.9, 8.2
"2000/03/24", 8.8, 9.5, 8.2
"2000/03/25", 8.5, 9.6, 7.5
"2000/03/26", 8.5, 9.8, 8.1
"2000/03/27", 8.2, 9.3, 7.2
"2000/03/28", 8.9, 9.6, 8.4
"2000/03/29",10.2,12.0, 9.0
"2000/03/30"," *"," *"," *"
"2000/03/31",10.5,11.1, 9.8
"2000/04/01",10.8,11.6,10.1
"2000/04/02",10.6,11.5, 9.8
"2000/04/03",10.4,10.7,10.1
"2000/04/04",10.4,11.3, 9.6
"2000/04/05",10.7,11.6,10.4
"2000/04/06",11.5,12.5,10.7
"2000/04/07",11.6,12.1,11.1
"2000/04/08",12.1,13.3,11.3
"2000/04/09",12.6,13.4,12.0
"2000/04/10",13.2,13.7,12.7
"2000/04/11",13.4,14.4,12.9
"2000/04/12",13.6,14.8,12.9
"2000/04/13",14.0,15.3,13.1
"2000/04/14",14.4,15.2,13.8
"2000/04/15",13.9,14.2,13.3
"2000/04/16",13.3,14.1,12.7
"2000/04/17",14.0,15.8,13.1
"2000/04/18",14.2,15.6,13.5
"2000/04/19",14.4,15.7,13.6
"2000/04/20",13.6,14.1,13.3
"2000/04/21",13.3,13.6,13.0
"2000/04/22",14.4,16.4,13.5
"2000/04/23",15.2,17.1,14.4
"2000/04/24",15.3,16.5,14.5
"2000/04/25",15.1,15.6,14.6
"2000/04/26",15.0,15.3,14.7
"2000/04/27",15.0,15.5,14.6
"2000/04/28",15.5,16.8,14.7
"2000/04/29",15.6,17.4,14.8
"2000/04/30",16.1,17.7,14.8
"2000/05/01",16.8,17.3,16.2
"2000/05/02",17.0,18.1,16.4
"2000/05/03",17.1,17.8,16.8
"2000/05/04",17.6,19.1,16.6
"2000/05/05",17.6,18.7,16.9
"2000/05/06",17.5,18.0,17.2
"2000/05/07",17.9,18.8,17.2
"2000/05/08",18.6,19.3,17.9
"2000/05/09",19.0,20.2,18.4
"2000/05/10",18.4,18.9,18.1
"2000/05/11",18.0,18.3,17.8
"2000/05/12",18.3,19.0,17.6
"2000/05/13",18.5,18.8,18.1
"2000/05/14",18.9,19.7,18.2
"2000/05/15",19.2,20.5,18.6
"2000/05/16",19.6,20.9,18.6
"2000/05/17",19.1,19.4,18.7
"2000/05/18",18.3,18.7,18.1
"2000/05/19",18.1,18.4,17.9
"2000/05/20",18.1,18.3,17.8
"2000/05/21",18.1,18.9,17.7
"2000/05/22",19.0,20.8,17.9
"2000/05/23",20.1,22.3,18.3
"2000/05/24",20.2,21.2,19.7
"2000/05/25",20.0,21.2,19.2
"2000/05/26",19.5,20.0,19.2
"2000/05/27",20.6,21.5,19.7
"2000/05/28",20.7,21.2,20.2
"2000/05/29",21.8,23.2,20.6
"2000/05/30",22.1,23.2,21.4
"2000/05/31",22.1,22.6,21.6
"2000/06/01",22.2,23.4,21.4
"2000/06/02",22.3,24.3,21.5
"2000/06/03",22.2,22.7,21.8
"2000/06/04",22.5,23.6,21.7
"2000/06/05",22.3,23.4,21.6
"2000/06/06",22.6,23.5,21.7
"2000/06/07",22.6,23.1,22.0
"2000/06/08",23.1,24.1,22.3
"2000/06/09",23.0,23.4,22.3
"2000/06/10",22.3,22.6,22.1
"2000/06/11",21.8,22.1,21.3
"2000/06/12",21.1,21.4,20.9
"2000/06/13",20.6,20.9,20.3
"2000/06/14",20.6,21.0,20.3
"2000/06/15",21.2,23.2,20.2
"2000/06/16",21.9,24.9,20.5
"2000/06/17",21.1,21.7,20.8
"2000/06/18",22.2,24.9,20.4
"2000/06/19",22.9,24.9,21.8
"2000/06/20",23.2,24.9,21.8
"2000/06/21",22.5,23.4,22.0
"2000/06/22",23.1,23.6,22.5
"2000/06/23",23.2,23.3,22.9
"2000/06/24",22.5,22.9,22.1
"2000/06/25",21.6,22.0,21.3
"2000/06/26",21.6,22.3,20.8
"2000/06/27",22.2,23.0,21.6
"2000/06/28",22.5,22.9,22.0
"2000/06/29",22.5,23.0,22.1
"2000/06/30",23.0,23.6,22.6
"2000/07/01",23.5,24.4,23.0
"2000/07/02",25.0,26.8,23.7
"2000/07/03",26.3,28.0,24.8
"2000/07/04",26.3,27.3,25.6
"2000/07/05",26.3,27.9,25.3
"2000/07/06",26.0,27.1,25.2
"2000/07/07",25.1,25.7,24.4
"2000/07/08",24.1,24.7,23.0
"2000/07/09",24.7,27.7,23.8
"2000/07/10",25.5,27.1,24.5
"2000/07/11",25.7,27.3,24.6
"2000/07/12",25.3,26.3,24.6
"2000/07/13",25.3,26.1,25.0
"2000/07/14",26.1,27.6,24.8
"2000/07/15",26.1,27.8,25.6
"2000/07/16",27.0,28.6,25.9
"2000/07/17",27.7,29.4,26.7
"2000/07/18",27.7,29.1,26.9
"2000/07/19",27.8,29.3,27.2
"2000/07/20",28.2,29.4,27.3
"2000/07/21",27.8,28.0,27.5
"2000/07/22",28.5,30.1,27.3
"2000/07/23",29.0,31.0,28.1
"2000/07/24",28.3,29.2,27.5
"2000/07/25",27.2,27.5,26.7
"2000/07/26",26.8,27.1,26.7
"2000/07/27",26.8,27.7,26.4
"2000/07/28",26.8,27.2,26.4
"2000/07/29",27.1,28.0,26.6
"2000/07/30",27.5,28.2,27.1
"2000/07/31",27.6,28.6,26.8
"2000/08/01",28.0,28.7,27.5
"2000/08/02",28.2,29.8,27.7
"2000/08/03",29.1,31.7,27.7
"2000/08/04",29.1,30.4,28.4
"2000/08/05",29.4,30.4,28.7
"2000/08/06",29.7,31.8,28.6
"2000/08/07",29.8,31.1,29.0
"2000/08/08",30.2,32.2,28.8
"2000/08/09",29.9,30.7,29.3
"2000/08/10",29.3,30.8,28.8
"2000/08/11",29.3,30.1,28.8
"2000/08/12",29.2,29.9,28.9
"2000/08/13",28.2,29.0,27.3
"2000/08/14",27.1,27.5,26.6
"2000/08/15",27.8,28.9,26.7
"2000/08/16",28.0,28.8,27.5
"2000/08/17",27.9,28.9,27.4
"2000/08/18",27.7,28.7,27.1
"2000/08/19",27.8,28.9,27.1
"2000/08/20",27.7,28.8,26.9
"2000/08/21",27.5,27.9,27.0
"2000/08/22",27.6,28.3,27.1
"2000/08/23",28.3,30.0,27.4
"2000/08/24",28.2,29.0,27.6
"2000/08/25",28.7,30.3,27.7
"2000/08/26",28.6,29.4,28.2
"2000/08/27",29.3,31.0,28.2
"2000/08/28",29.3,30.5,28.5
"2000/08/29",29.3,30.8,28.5
"2000/08/30",29.2,30.5,28.3
"2000/08/31",28.8,29.2,28.4
"2000/09/01",28.5,28.8,28.1
"2000/09/02",28.3,28.8,27.7
"2000/09/03",27.3,28.2,26.2
"2000/09/04",26.3,26.8,25.9
"2000/09/05",24.9,26.1,23.4
"2000/09/06",24.9,25.8,23.4
"2000/09/07",25.2,25.4,25.0
"2000/09/08",25.8,27.1,25.1
"2000/09/09",25.4,26.0,25.2
"2000/09/10",25.8,26.6,25.3
"2000/09/11",25.6,26.0,25.4
"2000/09/12",25.6,25.9,25.0
"2000/09/13",25.5,25.8,25.1
"2000/09/14",25.5,26.2,25.0
"2000/09/15",25.8,26.5,25.3
"2000/09/16",25.9,26.4,25.5
"2000/09/17",26.3,26.8,26.0
"2000/09/18",26.7,27.7,26.0
"2000/09/19",26.5,27.1,26.0
"2000/09/20",26.2,26.5,25.9
"2000/09/21",26.2,27.2,25.5
"2000/09/22",26.1,27.2,25.1
"2000/09/23",25.5,25.8,25.1
"2000/09/24",25.4,26.0,24.9
"2000/09/25",25.7,27.7,24.9
"2000/09/26",24.8,25.3,24.3
"2000/09/27",24.8,26.3,24.0
"2000/09/28",24.5,25.4,23.8
"2000/09/29",24.0,24.6,23.4
"2000/09/30",23.8,24.4,23.4
"2000/10/01",23.3,23.6,22.9
"2000/10/02",22.5,22.9,22.2
"2000/10/03",22.3,22.9,21.9
"2000/10/04",22.4,23.0,22.2
"2000/10/05",21.9,22.3,21.5
"2000/10/06",21.1,21.5,20.9
"2000/10/07",20.8,21.2,20.4
"2000/10/08",20.8,21.2,20.3
"2000/10/09",20.4,20.7,19.9
"2000/10/10",20.6,21.2,20.0
"2000/10/11",21.4,23.3,20.4
"2000/10/12",21.5,23.1,20.6
"2000/10/13",20.6,21.4,20.2
"2000/10/14",20.3,21.0,19.9
"2000/10/15",20.0,20.2,19.8
"2000/10/16",19.8,19.9,19.5
"2000/10/17",19.3,19.5,18.8
"2000/10/18",19.0,19.3,18.6
"2000/10/19",18.6,19.5,17.9
"2000/10/20",18.5,18.7,18.3
"2000/10/21",18.9,20.4,18.0
"2000/10/22",18.6,18.9,18.5
"2000/10/23",18.2,18.5,18.1
"2000/10/24"," *"," *"," *"
"2000/10/25",17.9,18.1,17.6
"2000/10/26",18.4,19.1,17.8
"2000/10/27",18.2,18.9,17.7
"2000/10/28",17.6,17.9,17.2
"2000/10/29",16.8,17.4,15.9
"2000/10/30",16.1,16.3,15.7
"2000/10/31",16.2,16.8,15.8
"2000/11/01",16.1,16.3,16.0
"2000/11/02",16.0,16.1,15.9
"2000/11/03",15.8,15.9,15.6
"2000/11/04",15.6,16.0,15.1
"2000/11/05",16.2,17.2,15.1
"2000/11/06",16.2,16.6,15.8
"2000/11/07",15.9,16.1,15.7
"2000/11/08",16.0,16.7,15.5
"2000/11/09",15.0,15.5,14.6
"2000/11/10",14.3,14.6,13.9
"2000/11/11",14.2,14.6,13.8
"2000/11/12",13.7,14.1,13.3
"2000/11/13",13.6,14.5,13.0
"2000/11/14",13.3,13.7,13.1
"2000/11/15"," *"," *"," *"
"2000/11/16"," *"," *"," *"
"2000/11/17"," *"," *"," *"
"2000/11/18",12.7,13.3,11.9
"2000/11/19",12.3,12.8,11.7
"2000/11/20",11.8,12.3,11.4
"2000/11/21",12.2,12.5,11.4
"2000/11/22",12.1,12.4,11.6
"2000/11/23",11.2,11.6,10.9
"2000/11/24",11.6,12.4,10.7
"2000/11/25",11.8,12.0,11.5
"2000/11/26",12.4,13.3,11.6
"2000/11/27",12.6,13.1,12.0
"2000/11/28",12.1,12.7,11.5
"2000/11/29",11.1,11.6,10.6
"2000/11/30",10.9,11.3,10.3
"2000/12/01",10.3,10.6,10.0
"2000/12/02", 9.8,10.2, 9.5
"2000/12/03", 9.7,10.1, 9.3
"2000/12/04", 9.7,10.1, 9.5
"2000/12/05", 9.4, 9.6, 8.8
"2000/12/06", 8.5, 9.2, 7.4
"2000/12/07", 7.9, 8.7, 6.9
"2000/12/08", 8.0, 8.4, 7.3
"2000/12/09", 8.6, 9.7, 7.9
"2000/12/10", 8.3, 8.7, 8.1
"2000/12/11", 8.2, 8.5, 7.8
"2000/12/12", 6.7, 7.8, 5.5
"2000/12/13", 6.6, 7.2, 6.2
"2000/12/14", 6.6, 6.7, 6.0
"2000/12/15", 6.8, 7.8, 5.7
"2000/12/16", 7.0, 7.4, 6.7
"2000/12/17", 7.1, 7.3, 6.8
"2000/12/18", 7.1, 7.3, 7.0
"2000/12/19", 7.5, 8.3, 7.1
"2000/12/20", 7.3, 7.5, 7.2
"2000/12/21", 7.5, 8.5, 7.1
"2000/12/22", 7.2, 7.4, 7.1
"2000/12/23", 7.4, 8.1, 7.1
"2000/12/24", 7.3, 7.8, 6.8
"2000/12/25", 7.3, 7.8, 6.8
"2000/12/26", 6.4, 7.1, 4.8
"2000/12/27", 5.9, 6.5, 4.7
"2000/12/28", 6.0, 6.6, 5.4
"2000/12/29", 6.0, 6.9, 5.3
"2000/12/30", 5.4, 5.8, 5.1
"2000/12/31", 5.4, 5.6, 5.2
